Вернуться в каталог

STARLINK-3737

АктивенСвязьVLEO
NORAD 52114·PAYLOAD·🇺🇸 United States

Запущен Mar 19, 2022 с Cape Canaveral Space Force Station

Loading…

Ближайшие Пролёты (ближайшие 24 часа)

TLE

СвежийSource: CelesTrak SupGP

Эпоха: Sep 14, 2026, 22:08 UTC

1 52114C 22029AC  26257.92270833  .00035227  00000+0  10410-2 0  2577
2 52114  53.1581 295.4341 0001132  94.1860 330.0287 15.34366700    10

Отслеживайте STARLINK-3737 в реальном времени с AllMySat

Download on the App Store